Location: El Bakhil
(32.7726°N, 5.5387°W)
Time: 05:13:10
(UTC+00:00)

Hubble Space Telescope - Pass Details

Date: 03 March 2021
Orbit: 535 x 539 km, 28.5° (Epoch: 12 April)

Event Time Altitude Azimuth Distance (km) Brightness Sun altitude
Rises 19:03:00 0° 213° (SSW) 2,657 4.8 -9.6°
Reaches altitude 10° 19:06:14 10° 186° (S) 1,770 3.5 -10.3°
Maximum altitude 19:08:16 13° 156° (SSE) 1,563 2.9 -10.7°
Enters shadow 19:10:18 10° 126° (SE) 1,771 2.9 -11.1°
